Regional Weather Roundup
Issued by NWS Cleveland, OH

Home | Current Version | Previous Version | Graphics & Text | Print | Product List | Glossary On
Versions: 1 2 3 4 5 6 7 8 9 10 11 12 13 14 15 16 17 18 19 20 21 22 23 24 25 26 27 28 29 30 31 32 33 34 35 36 37 38 39 40 41 42 43 44 45 46 47 48 49 50
000
ASUS41 KCLE 020010
RWRCLE
OHIO REGIONAL WEATHER ROUNDUP
NATIONAL WEATHER SERVICE WILMINGTON, OH
700 PM EST SUN FEB 01 2015

NOTE: "FAIR" INDICATES FEW OR NO CLOUDS BELOW 12,000 FEET WITH NO
SIGNIFICANT WEATHER AND/OR OBSTRUCTIONS TO VISIBILITY.

OHZ001>008-015>018-024>027-034-035-043-044-020100-
   NORTHWEST OHIO

CITY           SKY/WX    TMP DP  RH WIND       PRES   REMARKS
DEFIANCE       SNOW      25  22  88 NE16G24   29.66F VSB 1/2 WCI  12
FINDLAY        LGT SNOW  34  32  92 NE8       29.60F FOG     WCI  27
TOLEDO EXPRESS HVY SNOW  23  21  92 NE20G30   29.68F VSB 1/4 WCI   8
TOLEDO EXEC    SNOW      25  21  85 NE20G31   29.70F VSB 1/2 WCI  11
LIMA           LGT RAIN  35  33  92 E8        29.56F FOG     WCI  29
$$

OHZ009>014-019>023-028>033-038-089-020100-
   NORTHEAST OHIO

CITY           SKY/WX    TMP DP  RH WIND       PRES   REMARKS
CLE-HOPKINS    LGT SNOW  32  30  92 E7        29.71F FOG     WCI  26
CLE-LAKEFRONT  LGT SNOW  32  30  92 NE7       29.70F VSB 1   WCI  26
CUY CO. ARPT   SNOW      32  32 100 E12       29.71F VSB 1/2 WCI  23
LORAIN-ELYRIA  LGT SNOW  32  31  96 E10       29.67F FOG     WCI  24
ASHTABULA      LGT SNOW  27  25  92 E7        29.74F FOG     WCI  19
AKRON-CANTON   LGT SNOW  34  31  88 SE14      29.67F VSB 1   WCI  25
WOOSTER        MIX PCPN  33  32  96 SE12      29.65F FOG     WCI  24
MANSFIELD      LGT RAIN  34  34 100 S12       29.61F FOG     WCI  25
YOUNGSTOWN     LGT SNOW  31  29  92 E12       29.72F VSB 1   WCI  22
$$

OHZ042-051>053-060>062-070>072-077>081-020100-
  SOUTHWEST OHIO

CITY           SKY/WX    TMP DP  RH WIND       PRES   REMARKS
CINC-COVINGTON LGT RAIN  45  43  93 S10       29.57F
CINC-LUNKEN    LGT RAIN  43  42  97 S8        29.59F FOG
HAMILTON       LGT RAIN  44  43  96 CALM      29.58F FOG
DAYTON         LGT RAIN  41  40  96 S9        29.57F FOG
WRIGHT-PAT AFB LGT RAIN  39  39  98 S6        29.57F FOG
DAYTON GENERAL LGT RAIN  41  40  96 S6        29.56F FOG
WILMINGTON     LGT RAIN  40  38  93 S14       29.57F FOG
$$

OHZ036-037-039>041-045>050-054>059-063>069-073>076-082>088-020100-
  CENTRAL AND SOUTHEAST OHIO

CITY           SKY/WX    TMP DP  RH WIND       PRES   REMARKS
COLUMBUS       LGT RAIN  36  34  92 SE9       29.61F FOG
OSU AIRPORT    LGT RAIN  36  34  92 SE9       29.59F FOG
BOLTON FIELD   RAIN      35  35  99 SE8       29.60F WCI  29
RICKENBACK AFB CLOUDY    38  36  92 S10G17    29.60F
NEWARK         LGT RAIN  37  35  92 S6        29.63F FOG
MARION         LGT RAIN  35  33  92 S14       29.59F FOG     WCI  26
LANCASTER      LGT RAIN  38  36  92 S10       29.62F FOG
ZANESVILLE     LGT RAIN  36  34  92 SE10      29.65F FOG
NEW PHILLY     LGT RAIN  36  34  92 SE9G18    29.69F FOG
$$


USA.gov is the U.S. government's official web portal to all federal, state and local government web resources and services.